Time,TemperatureF,DewpointF,PressureIn,WindDirection,WindDirectionDegrees,WindSpeedMPH,WindSpeedGustMPH,Humidity,HourlyPrecipIn,Conditions,Clouds,dailyrainin,SoftwareType,DateUTC
2013-03-17 00:00:00,37.9,26.5,30.06,NNE,25,0.0,0.0,63,0.00,,,0.00,WeatherDisplay:10.36,2013-03-17 05:00:00,
2013-03-17 00:05:00,37.9,26.5,30.06,NNE,29,5.8,5.8,63,0.00,,,0.00,WeatherDisplay:10.36,2013-03-17 05:05:00,
2013-03-17 00:10:00,37.8,26.3,30.06,ENE,64,0.0,0.0,63,0.00,,,0.00,WeatherDisplay:10.36,2013-03-17 05:10:00,
2013-03-17 00:15:00,37.8,26.7,30.06,NNE,25,5.8,0.0,64,0.00,,,0.00,WeatherDisplay:10.36,2013-03-17 05:15:00,
2013-03-17 00:20:00,37.6,26.1,30.06,NE,49,6.3,6.3,63,0.00,,,0.00,WeatherDisplay:10.36,2013-03-17 05:20:00,
2013-03-17 00:25:00,37.6,26.5,30.06,NE,49,4.9,4.9,64,0.00,,,0.00,WeatherDisplay:10.36,2013-03-17 05:25:00,
2013-03-17 00:30:00,37.4,26.3,30.06,North,351,6.9,6.9,64,0.00,,,0.00,WeatherDisplay:10.36,2013-03-17 05:30:00,
2013-03-17 00:35:00,37.4,26.3,30.06,North,351,5.8,5.8,64,0.00,,,0.00,WeatherDisplay:10.36,2013-03-17 05:35:00,
2013-03-17 00:40:00,37.4,26.3,30.06,NE,45,7.8,7.8,64,0.00,,,0.00,WeatherDisplay:10.36,2013-03-17 05:40:00,
2013-03-17 00:45:00,37.2,26.2,30.06,NNE,26,5.8,5.8,64,0.00,,,0.00,WeatherDisplay:10.36,2013-03-17 05:45:00,
2013-03-17 00:50:00,37.2,26.2,30.06,NE,49,5.8,5.8,64,0.00,,,0.00,WeatherDisplay:10.36,2013-03-17 05:50:00,
2013-03-17 00:55:00,37.2,26.2,30.06,East,84,6.9,0.0,64,0.00,,,0.00,WeatherDisplay:10.36,2013-03-17 05:55:00,
2013-03-17 01:00:00,37.0,26.0,30.06,NE,46,5.8,5.8,64,0.00,,,0.00,WeatherDisplay:10.36,2013-03-17 06:00:00,
2013-03-17 01:05:00,37.0,26.0,30.06,East,83,6.9,6.9,64,0.00,,,0.00,WeatherDisplay:10.36,2013-03-17 06:05:00,
2013-03-17 01:10:00,37.0,25.6,30.06,NE,51,4.9,4.9,63,0.00,,,0.00,WeatherDisplay:10.36,2013-03-17 06:10:00,
2013-03-17 01:15:00,36.7,25.3,30.06,ENE,61,6.9,6.9,63,0.00,,,0.00,WeatherDisplay:10.36,2013-03-17 06:15:00,
2013-03-17 01:20:00,36.5,24.7,30.88,East,93,4.6,4.6,62,0.00,,,0.00,WeatherDisplay:10.36,2013-03-17 06:20:00,
2013-03-17 01:25:00,36.5,25.1,30.88,NE,46,6.9,6.9,63,0.00,,,0.00,WeatherDisplay:10.36,2013-03-17 06:25:00,
2013-03-17 01:30:00,36.3,24.9,30.88,NE,47,5.8,0.0,63,0.00,,,0.00,WeatherDisplay:10.36,2013-03-17 06:30:00,
2013-03-17 01:35:00,36.1,24.7,30.08,ENE,57,6.3,6.3,63,0.00,,,0.00,WeatherDisplay:10.36,2013-03-17 06:35:00,
2013-03-17 01:40:00,36.1,24.7,30.08,North,351,6.7,6.7,63,0.00,,,0.00,WeatherDisplay:10.36,2013-03-17 06:40:00,
2013-03-17 01:45:00,36.0,24.6,30.08,ENE,65,5.8,5.8,63,0.00,,,0.00,WeatherDisplay:10.36,2013-03-17 06:45:00,
2013-03-17 01:50:00,36.0,24.6,30.94,NE,53,0.0,0.0,63,0.00,,,0.00,WeatherDisplay:10.36,2013-03-17 06:50:00,
2013-03-17 01:55:00,35.8,24.4,30.94,North,351,4.0,4.0,63,0.00,,,0.00,WeatherDisplay:10.36,2013-03-17 06:55:00,
2013-03-17 02:00:00,35.8,24.4,30.94,NE,51,10.5,10.5,63,0.00,,,0.00,WeatherDisplay:10.36,2013-03-17 07:00:00,
2013-03-17 02:05:00,35.6,24.2,30.08,North,351,6.3,6.3,63,0.00,,,0.00,WeatherDisplay:10.36,2013-03-17 07:05:00,
2013-03-17 02:10:00,35.4,24.4,30.08,NNE,26,4.6,0.0,64,0.00,,,0.00,WeatherDisplay:10.36,2013-03-17 07:10:00,
2013-03-17 02:15:00,35.4,24.4,30.08,ENE,65,8.1,8.1,64,0.00,,,0.00,WeatherDisplay:10.36,2013-03-17 07:15:00,
2013-03-17 02:20:00,35.2,24.3,30.06,NE,52,6.3,0.0,64,0.00,,,0.00,WeatherDisplay:10.36,2013-03-17 07:20:00,
2013-03-17 02:25:00,35.2,24.6,30.06,NE,38,5.8,0.0,65,0.00,,,0.00,WeatherDisplay:10.36,2013-03-17 07:25:00,
2013-03-17 02:30:00,35.2,24.6,30.06,NE,52,4.6,4.6,65,0.00,,,0.00,WeatherDisplay:10.36,2013-03-17 07:30:00,
2013-03-17 02:35:00,35.2,24.6,30.06,NNE,28,6.9,6.9,65,0.00,,,0.00,WeatherDisplay:10.36,2013-03-17 07:35:00,
2013-03-17 02:40:00,35.1,24.5,30.06,NNE,26,7.4,7.4,65,0.00,,,0.00,WeatherDisplay:10.36,2013-03-17 07:40:00,
2013-03-17 02:46:00,35.1,24.5,30.06,NNE,26,5.8,5.8,65,0.00,,,0.00,WeatherDisplay:10.36,2013-03-17 07:46:00,
2013-03-17 02:51:00,34.9,24.3,30.08,NE,52,10.1,0.0,65,0.00,,,0.00,WeatherDisplay:10.36,2013-03-17 07:51:00,
2013-03-17 02:56:00,35.1,24.5,30.08,North,351,5.8,5.8,65,0.00,,,0.00,WeatherDisplay:10.36,2013-03-17 07:56:00,
2013-03-17 03:01:00,34.9,24.3,30.08,North,351,0.0,0.0,65,0.00,,,0.00,WeatherDisplay:10.36,2013-03-17 08:01:00,
2013-03-17 03:07:00,34.9,24.3,30.08,North,351,5.8,5.8,65,0.00,,,0.00,WeatherDisplay:10.36,2013-03-17 08:07:00,
2013-03-17 03:12:00,34.9,24.3,30.08,North,351,2.7,2.7,65,0.00,,,0.00,WeatherDisplay:10.36,2013-03-17 08:12:00,
2013-03-17 03:17:00,34.9,24.7,30.08,North,351,3.6,3.6,66,0.00,,,0.00,WeatherDisplay:10.36,2013-03-17 08:17:00,
2013-03-17 03:22:00,34.7,24.5,30.85,NE,56,0.0,0.0,66,0.00,,,0.00,WeatherDisplay:10.36,2013-03-17 08:22:00,
2013-03-17 03:27:00,34.9,24.7,30.85,North,351,0.0,0.0,66,0.00,,,0.00,WeatherDisplay:10.36,2013-03-17 08:27:00,
2013-03-17 03:32:00,34.9,24.7,30.88,NE,56,3.5,0.0,66,0.00,,,0.00,WeatherDisplay:10.36,2013-03-17 08:32:00,
2013-03-17 03:37:00,35.1,25.2,30.88,NE,53,6.9,0.0,67,0.00,,,0.00,WeatherDisplay:10.36,2013-03-17 08:37:00,
2013-03-17 03:43:00,34.9,24.7,30.88,NE,53,4.0,4.0,66,0.00,,,0.00,WeatherDisplay:10.36,2013-03-17 08:43:00,
2013-03-17 03:48:00,34.9,25.0,30.08,NE,48,4.0,0.0,67,0.00,,,0.00,WeatherDisplay:10.36,2013-03-17 08:48:00,
2013-03-17 03:53:00,34.9,25.0,30.08,NNE,27,5.8,5.8,67,0.00,,,0.00,WeatherDisplay:10.36,2013-03-17 08:53:00,
2013-03-17 03:59:00,34.7,24.9,30.08,NE,35,7.4,7.4,67,0.00,,,0.00,WeatherDisplay:10.36,2013-03-17 08:59:00,
2013-03-17 04:04:00,34.5,24.7,30.06,North,351,2.7,0.0,67,0.00,,,0.00,WeatherDisplay:10.36,2013-03-17 09:04:00,
2013-03-17 04:09:00,34.5,24.7,30.06,East,91,6.3,6.3,67,0.00,,,0.00,WeatherDisplay:10.36,2013-03-17 09:09:00,
2013-03-17 04:14:00,34.3,24.5,30.06,NNE,26,4.9,4.9,67,0.00,,,0.00,WeatherDisplay:10.36,2013-03-17 09:14:00,
2013-03-17 04:19:00,34.3,24.5,30.06,NNE,28,6.3,6.3,67,0.00,,,0.00,WeatherDisplay:10.36,2013-03-17 09:19:00,
2013-03-17 04:24:00,34.2,24.3,30.06,NNE,28,7.4,7.4,67,0.00,,,0.00,WeatherDisplay:10.36,2013-03-17 09:24:00,
2013-03-17 04:29:00,34.2,24.7,30.06,NNE,28,8.1,8.1,68,0.00,,,0.00,WeatherDisplay:10.36,2013-03-17 09:29:00,
2013-03-17 04:34:00,34.0,24.5,30.06,North,351,4.6,4.6,68,0.00,,,0.00,WeatherDisplay:10.36,2013-03-17 09:34:00,
2013-03-17 04:39:00,34.0,24.5,30.06,NE,47,5.8,5.8,68,0.00,,,0.00,WeatherDisplay:10.36,2013-03-17 09:39:00,
2013-03-17 04:44:00,33.8,24.7,30.06,NE,47,0.0,0.0,69,0.00,,,0.00,WeatherDisplay:10.36,2013-03-17 09:44:00,
2013-03-17 04:49:00,34.0,24.9,30.06,East,96,3.5,0.0,69,0.00,,,0.00,WeatherDisplay:10.36,2013-03-17 09:49:00,
2013-03-17 04:54:00,34.0,24.9,30.06,NNE,32,2.7,0.0,69,0.00,,,0.00,WeatherDisplay:10.36,2013-03-17 09:54:00,
2013-03-17 04:59:00,34.0,24.9,30.06,West,266,0.0,0.0,69,0.00,,,0.00,WeatherDisplay:10.36,2013-03-17 09:59:00,
2013-03-17 05:04:00,34.0,24.9,30.06,NE,52,4.9,4.9,69,0.00,,,0.00,WeatherDisplay:10.36,2013-03-17 10:04:00,
2013-03-17 05:09:00,34.0,24.9,30.06,NNE,27,4.6,4.6,69,0.00,,,0.00,WeatherDisplay:10.36,2013-03-17 10:09:00,
2013-03-17 05:14:00,34.0,25.2,30.06,North,351,6.9,6.9,70,0.00,,,0.00,WeatherDisplay:10.36,2013-03-17 10:14:00,
2013-03-17 05:20:00,34.2,25.4,30.88,North,351,0.0,0.0,70,0.00,,,0.00,WeatherDisplay:10.36,2013-03-17 10:20:00,
2013-03-17 05:25:00,34.2,25.4,30.88,North,351,0.0,0.0,70,0.00,,,0.00,WeatherDisplay:10.36,2013-03-17 10:25:00,
2013-03-17 05:30:00,34.2,25.4,30.88,SSW,212,0.0,0.0,70,0.00,,,0.00,WeatherDisplay:10.36,2013-03-17 10:30:00,
2013-03-17 05:35:00,34.0,25.2,30.08,North,351,0.0,0.0,70,0.00,,,0.00,WeatherDisplay:10.36,2013-03-17 10:35:00,
2013-03-17 05:41:00,34.0,25.2,30.08,NNE,30,2.7,0.0,70,0.00,,,0.00,WeatherDisplay:10.36,2013-03-17 10:41:00,
2013-03-17 05:46:00,34.0,25.2,30.08,NNE,25,4.6,4.6,70,0.00,,,0.00,WeatherDisplay:10.36,2013-03-17 10:46:00,
2013-03-17 05:52:00,33.8,24.7,30.88,North,351,4.0,0.0,69,0.00,,,0.00,WeatherDisplay:10.36,2013-03-17 10:52:00,
2013-03-17 05:57:00,33.8,24.7,30.88,NE,36,0.0,0.0,69,0.00,,,0.00,WeatherDisplay:10.36,2013-03-17 10:57:00,
2013-03-17 06:02:00,33.8,25.0,30.91,North,351,0.0,0.0,70,0.00,,,0.00,WeatherDisplay:10.36,2013-03-17 11:02:00,
2013-03-17 06:07:00,33.8,25.0,30.91,North,351,0.0,3.6,70,0.00,,,0.00,WeatherDisplay:10.36,2013-03-17 11:07:00,
2013-03-17 06:12:00,33.8,25.0,30.91,North,351,4.6,0.0,70,0.00,,,0.00,WeatherDisplay:10.36,2013-03-17 11:12:00,
2013-03-17 06:18:00,33.6,24.9,30.08,NE,51,5.4,5.4,70,0.00,,,0.00,WeatherDisplay:10.36,2013-03-17 11:18:00,
2013-03-17 06:23:00,33.8,25.0,30.08,NNE,26,3.5,0.0,70,0.00,,,0.00,WeatherDisplay:10.36,2013-03-17 11:23:00,
2013-03-17 06:28:00,33.6,24.9,30.08,NE,43,5.8,5.8,70,0.00,,,0.00,WeatherDisplay:10.36,2013-03-17 11:28:00,
2013-03-17 06:33:00,33.6,24.9,30.08,NNE,26,4.6,4.6,70,0.00,,,0.00,WeatherDisplay:10.36,2013-03-17 11:33:00,
2013-03-17 06:39:00,33.6,24.9,30.08,NNE,27,5.8,5.8,70,0.00,,,0.00,WeatherDisplay:10.36,2013-03-17 11:39:00,
2013-03-17 06:44:00,33.6,24.9,30.08,NE,37,4.6,4.6,70,0.00,,,0.00,WeatherDisplay:10.36,2013-03-17 11:44:00,
2013-03-17 06:49:00,33.6,24.9,30.08,NNE,27,2.3,0.0,70,0.00,,,0.00,WeatherDisplay:10.36,2013-03-17 11:49:00,
2013-03-17 06:54:00,33.6,24.5,30.08,NNE,28,6.9,6.9,69,0.00,,,0.00,WeatherDisplay:10.36,2013-03-17 11:54:00,
2013-03-17 06:59:00,33.6,24.5,30.08,ESE,116,4.0,0.0,69,0.00,,,0.00,WeatherDisplay:10.36,2013-03-17 11:59:00,
2013-03-17 07:04:00,33.6,24.5,30.08,NNE,28,8.3,8.3,69,0.00,,,0.00,WeatherDisplay:10.36,2013-03-17 12:04:00,
2013-03-17 07:09:00,33.6,24.2,30.08,NNE,30,4.9,0.0,68,0.00,,,0.00,WeatherDisplay:10.36,2013-03-17 12:09:00,
2013-03-17 07:14:00,33.6,23.8,30.08,NNE,29,8.1,8.1,67,0.00,,,0.00,WeatherDisplay:10.36,2013-03-17 12:14:00,
2013-03-17 07:19:00,33.6,23.8,30.08,NNE,26,6.7,6.7,67,0.00,,,0.00,WeatherDisplay:10.36,2013-03-17 12:19:00,
2013-03-17 07:24:00,33.4,23.3,30.08,NNE,26,5.8,5.8,66,0.00,,,0.00,WeatherDisplay:10.36,2013-03-17 12:24:00,
2013-03-17 07:29:00,33.4,22.9,30.08,North,351,8.3,8.3,65,0.00,,,0.00,WeatherDisplay:10.36,2013-03-17 12:29:00,
2013-03-17 07:34:00,33.4,22.9,30.08,NNE,26,6.9,6.9,65,0.00,,,0.00,WeatherDisplay:10.36,2013-03-17 12:34:00,
2013-03-17 07:39:00,33.4,22.9,30.08,NNE,26,6.9,6.9,65,0.00,,,0.00,WeatherDisplay:10.36,2013-03-17 12:39:00,
2013-03-17 07:44:00,33.3,22.8,30.08,NE,40,6.9,6.9,65,0.00,,,0.00,WeatherDisplay:10.36,2013-03-17 12:44:00,
2013-03-17 07:49:00,33.3,22.8,30.08,NNE,29,7.4,7.4,65,0.00,,,0.00,WeatherDisplay:10.36,2013-03-17 12:49:00,
2013-03-17 07:54:00,33.3,22.4,30.08,NE,34,10.4,10.4,64,0.00,,,0.00,WeatherDisplay:10.36,2013-03-17 12:54:00,
2013-03-17 07:59:00,33.1,22.2,30.08,NE,35,6.3,6.3,64,0.00,,,0.00,WeatherDisplay:10.36,2013-03-17 12:59:00,
2013-03-17 08:04:00,33.3,22.4,30.08,NE,34,5.8,5.8,64,0.00,,,0.00,WeatherDisplay:10.36,2013-03-17 13:04:00,
2013-03-17 08:09:00,33.3,22.8,30.08,NNE,28,5.8,0.0,65,0.00,,,0.00,WeatherDisplay:10.36,2013-03-17 13:09:00,
2013-03-17 08:14:00,33.3,22.8,30.08,NNE,26,6.7,6.7,65,0.00,,,0.00,WeatherDisplay:10.36,2013-03-17 13:14:00,
2013-03-17 08:19:00,33.3,22.8,30.08,NE,35,4.9,4.9,65,0.00,,,0.00,WeatherDisplay:10.36,2013-03-17 13:19:00,
2013-03-17 08:24:00,33.4,22.9,30.08,NE,35,7.8,7.8,65,0.00,,,0.00,WeatherDisplay:10.36,2013-03-17 13:24:00,
2013-03-17 08:29:00,33.4,22.9,30.08,NNE,26,5.8,5.8,65,0.00,,,0.00,WeatherDisplay:10.36,2013-03-17 13:29:00,
2013-03-17 08:34:00,33.4,22.9,30.08,NNE,27,7.4,7.4,65,0.00,,,0.00,WeatherDisplay:10.36,2013-03-17 13:34:00,
2013-03-17 08:39:00,33.4,22.6,30.08,NE,35,9.2,9.2,64,0.00,,,0.00,WeatherDisplay:10.36,2013-03-17 13:39:00,
2013-03-17 08:44:00,33.4,21.8,30.08,NNE,26,6.9,6.9,62,0.00,,,0.00,WeatherDisplay:10.36,2013-03-17 13:44:00,
2013-03-17 08:49:00,33.4,21.4,30.08,NE,35,6.3,6.3,61,0.00,,,0.00,WeatherDisplay:10.36,2013-03-17 13:49:00,
2013-03-17 08:54:00,33.6,21.6,30.08,NE,36,4.9,4.9,61,0.00,,,0.00,WeatherDisplay:10.36,2013-03-17 13:54:00,
2013-03-17 08:59:00,33.6,21.2,30.08,NE,40,9.2,9.2,60,0.00,,,0.00,WeatherDisplay:10.36,2013-03-17 13:59:00,
2013-03-17 09:04:00,33.6,20.8,30.08,NE,53,5.8,5.8,59,0.00,,,0.00,WeatherDisplay:10.36,2013-03-17 14:04:00,
2013-03-17 09:09:00,33.6,20.8,30.08,NNE,33,6.9,6.9,59,0.00,,,0.00,WeatherDisplay:10.36,2013-03-17 14:09:00,
2013-03-17 09:14:00,33.6,20.8,30.08,NE,39,7.4,7.4,59,0.00,,,0.00,WeatherDisplay:10.36,2013-03-17 14:14:00,
2013-03-17 09:19:00,33.6,20.4,30.08,NE,34,11.5,11.5,58,0.00,,,0.00,WeatherDisplay:10.36,2013-03-17 14:19:00,
2013-03-17 09:24:00,33.8,20.6,30.08,NNE,26,8.1,8.1,58,0.00,,,0.00,WeatherDisplay:10.36,2013-03-17 14:24:00,
2013-03-17 09:29:00,33.8,20.2,30.08,NNE,32,8.3,8.3,57,0.00,,,0.00,WeatherDisplay:10.36,2013-03-17 14:29:00,
2013-03-17 09:34:00,33.8,19.7,30.08,NE,47,6.3,6.3,56,0.00,,,0.00,WeatherDisplay:10.36,2013-03-17 14:34:00,
2013-03-17 09:39:00,33.8,19.7,30.08,NE,36,6.9,6.9,56,0.00,,,0.00,WeatherDisplay:10.36,2013-03-17 14:39:00,
2013-03-17 09:44:00,33.8,19.7,30.08,NNE,27,7.4,7.4,56,0.00,,,0.00,WeatherDisplay:10.36,2013-03-17 14:44:00,
2013-03-17 09:49:00,33.8,19.7,30.08,NE,36,5.8,5.8,56,0.00,,,0.00,WeatherDisplay:10.36,2013-03-17 14:49:00,
2013-03-17 09:54:00,33.8,19.3,30.08,NE,34,5.8,5.8,55,0.00,,,0.00,WeatherDisplay:10.36,2013-03-17 14:54:00,
2013-03-17 09:59:00,33.8,19.3,30.08,NE,34,5.8,5.8,55,0.00,,,0.00,WeatherDisplay:10.36,2013-03-17 14:59:00,
2013-03-17 10:04:00,34.0,19.9,30.08,NE,36,6.9,6.9,56,0.00,,,0.00,WeatherDisplay:10.36,2013-03-17 15:04:00,
2013-03-17 10:09:00,34.3,19.4,30.08,NNE,26,7.4,7.4,54,0.00,,,0.00,WeatherDisplay:10.36,2013-03-17 15:09:00,
2013-03-17 10:14:00,34.5,19.6,30.08,NE,41,6.9,6.9,54,0.00,,,0.00,WeatherDisplay:10.36,2013-03-17 15:14:00,
2013-03-17 10:19:00,34.9,19.9,30.08,NE,36,6.9,6.9,54,0.00,,,0.00,WeatherDisplay:10.36,2013-03-17 15:19:00,
2013-03-17 10:24:00,35.1,19.2,30.08,SSE,156,9.2,9.2,52,0.00,,,0.00,WeatherDisplay:10.36,2013-03-17 15:24:00,
2013-03-17 10:29:00,35.1,18.7,30.08,NNE,26,5.8,5.8,51,0.00,,,0.00,WeatherDisplay:10.36,2013-03-17 15:29:00,
2013-03-17 10:34:00,34.9,18.6,30.08,NNE,26,4.6,0.0,51,0.00,,,0.00,WeatherDisplay:10.36,2013-03-17 15:34:00,
2013-03-17 10:39:00,35.2,18.9,30.08,NNE,29,5.8,5.8,51,0.00,,,0.00,WeatherDisplay:10.36,2013-03-17 15:39:00,
2013-03-17 10:44:00,35.4,19.1,30.08,NE,34,5.8,5.8,51,0.00,,,0.00,WeatherDisplay:10.36,2013-03-17 15:44:00,
2013-03-17 10:49:00,35.8,19.4,30.08,SE,127,11.5,11.5,51,0.00,,,0.00,WeatherDisplay:10.36,2013-03-17 15:49:00,
2013-03-17 10:54:00,36.0,19.6,30.08,NNE,26,5.8,5.8,51,0.00,,,0.00,WeatherDisplay:10.36,2013-03-17 15:54:00,
2013-03-17 10:59:00,36.5,20.1,30.08,NE,37,6.7,6.7,51,0.00,,,0.00,WeatherDisplay:10.36,2013-03-17 15:59:00,
2013-03-17 11:04:00,37.0,20.1,30.08,NNE,27,8.1,8.1,50,0.00,,,0.00,WeatherDisplay:10.36,2013-03-17 16:04:00,
2013-03-17 11:09:00,37.4,20.0,30.08,NE,35,8.1,8.1,49,0.00,,,0.00,WeatherDisplay:10.36,2013-03-17 16:09:00,
2013-03-17 11:14:00,37.9,20.5,30.08,NE,37,9.6,9.6,49,0.00,,,0.00,WeatherDisplay:10.36,2013-03-17 16:14:00,
2013-03-17 11:19:00,37.6,19.6,30.06,NNE,26,8.1,8.1,48,0.00,,,0.00,WeatherDisplay:10.36,2013-03-17 16:19:00,
2013-03-17 11:24:00,37.4,19.5,30.06,NE,38,7.4,7.4,48,0.00,,,0.00,WeatherDisplay:10.36,2013-03-17 16:24:00,
2013-03-17 11:29:00,37.4,20.0,30.06,NNE,28,8.1,8.1,49,0.00,,,0.00,WeatherDisplay:10.36,2013-03-17 16:29:00,
2013-03-17 11:34:00,37.4,20.0,30.06,NE,36,8.1,8.1,49,0.00,,,0.00,WeatherDisplay:10.36,2013-03-17 16:34:00,
2013-03-17 11:39:00,37.6,20.1,30.06,NE,35,7.8,7.8,49,0.00,,,0.00,WeatherDisplay:10.36,2013-03-17 16:39:00,
2013-03-17 11:44:00,37.8,20.3,30.06,NNE,31,6.9,6.9,49,0.00,,,0.00,WeatherDisplay:10.36,2013-03-17 16:44:00,
2013-03-17 11:49:00,38.3,20.8,30.06,NE,34,8.3,8.3,49,0.00,,,0.00,WeatherDisplay:10.36,2013-03-17 16:49:00,
2013-03-17 11:54:00,37.9,19.5,30.06,NE,36,10.4,10.4,47,0.00,,,0.00,WeatherDisplay:10.36,2013-03-17 16:54:00,
2013-03-17 11:59:00,37.8,20.3,30.06,NNE,25,6.9,6.9,49,0.00,,,0.00,WeatherDisplay:10.36,2013-03-17 16:59:00,
2013-03-17 12:04:00,38.1,20.6,30.06,NNE,33,5.8,5.8,49,0.00,,,0.00,WeatherDisplay:10.36,2013-03-17 17:04:00,
2013-03-17 12:09:00,38.3,20.8,30.06,NNE,26,8.1,8.1,49,0.00,,,0.00,WeatherDisplay:10.36,2013-03-17 17:09:00,
2013-03-17 12:14:00,38.1,20.1,30.06,NNE,31,11.5,11.5,48,0.00,,,0.00,WeatherDisplay:10.36,2013-03-17 17:14:00,
2013-03-17 12:19:00,37.9,20.5,30.06,NNE,28,4.5,4.5,49,0.00,,,0.00,WeatherDisplay:10.36,2013-03-17 17:19:00,
2013-03-17 12:24:00,38.3,20.8,30.06,NE,40,5.8,5.8,49,0.00,,,0.00,WeatherDisplay:10.36,2013-03-17 17:24:00,
2013-03-17 12:29:00,38.3,20.8,30.06,NNE,29,4.9,4.9,49,0.00,,,0.00,WeatherDisplay:10.36,2013-03-17 17:29:00,
2013-03-17 12:34:00,38.3,20.8,30.06,NNE,26,7.4,7.4,49,0.00,,,0.00,WeatherDisplay:10.36,2013-03-17 17:34:00,
2013-03-17 12:39:00,38.1,20.6,30.06,NE,35,8.3,8.3,49,0.00,,,0.00,WeatherDisplay:10.36,2013-03-17 17:39:00,
2013-03-17 12:44:00,38.3,20.8,30.06,NE,37,9.2,9.2,49,0.00,,,0.00,WeatherDisplay:10.36,2013-03-17 17:44:00,
2013-03-17 12:49:00,38.5,21.0,30.03,NE,34,6.9,6.9,49,0.00,,,0.00,WeatherDisplay:10.36,2013-03-17 17:49:00,
2013-03-17 12:54:00,38.8,21.3,30.03,NE,36,7.4,7.4,49,0.00,,,0.00,WeatherDisplay:10.36,2013-03-17 17:54:00,
2013-03-17 12:59:00,39.0,21.0,30.03,NE,37,8.3,8.3,48,0.00,,,0.00,WeatherDisplay:10.36,2013-03-17 17:59:00,
2013-03-17 13:04:00,39.0,20.5,30.03,NE,37,8.3,8.3,47,0.00,,,0.00,WeatherDisplay:10.36,2013-03-17 18:04:00,
2013-03-17 13:09:00,38.7,20.6,30.03,NE,36,9.2,9.2,48,0.00,,,0.00,WeatherDisplay:10.36,2013-03-17 18:09:00,
2013-03-17 13:14:00,38.7,20.6,30.03,NE,36,6.9,6.9,48,0.00,,,0.00,WeatherDisplay:10.36,2013-03-17 18:14:00,
2013-03-17 13:19:00,38.7,20.6,30.03,NE,36,8.7,8.7,48,0.00,,,0.00,WeatherDisplay:10.36,2013-03-17 18:19:00,
2013-03-17 13:24:00,38.5,20.5,30.03,SSW,193,6.9,6.9,48,0.00,,,0.00,WeatherDisplay:10.36,2013-03-17 18:24:00,
2013-03-17 13:29:00,38.5,20.5,30.03,NE,34,9.6,9.6,48,0.00,,,0.00,WeatherDisplay:10.36,2013-03-17 18:29:00,
2013-03-17 13:34:00,38.7,21.1,30.00,NNE,28,6.7,6.7,49,0.00,,,0.00,WeatherDisplay:10.36,2013-03-17 18:34:00,
2013-03-17 13:39:00,38.7,21.1,30.00,NE,34,7.4,7.4,49,0.00,,,0.00,WeatherDisplay:10.36,2013-03-17 18:39:00,
2013-03-17 13:44:00,38.8,21.3,30.00,NE,46,5.8,5.8,49,0.00,,,0.00,WeatherDisplay:10.36,2013-03-17 18:44:00,
2013-03-17 13:49:00,38.8,20.8,30.00,NE,37,9.6,9.6,48,0.00,,,0.00,WeatherDisplay:10.36,2013-03-17 18:49:00,
2013-03-17 13:54:00,39.0,21.0,30.00,NE,35,7.4,7.4,48,0.00,,,0.00,WeatherDisplay:10.36,2013-03-17 18:54:00,
2013-03-17 13:59:00,39.2,21.1,30.00,NE,42,8.1,8.1,48,0.00,,,0.00,WeatherDisplay:10.36,2013-03-17 18:59:00,
2013-03-17 14:04:00,39.2,21.1,30.00,NE,39,6.9,6.9,48,0.00,,,0.00,WeatherDisplay:10.36,2013-03-17 19:04:00,
2013-03-17 14:09:00,39.2,21.1,30.00,NE,34,8.1,8.1,48,0.00,,,0.00,WeatherDisplay:10.36,2013-03-17 19:09:00,
2013-03-17 14:15:00,39.0,20.5,30.00,NE,36,8.3,8.3,47,0.00,,,0.00,WeatherDisplay:10.36,2013-03-17 19:15:00,
2013-03-17 14:20:00,39.0,21.0,29.97,NE,36,9.2,9.2,48,0.00,,,0.00,WeatherDisplay:10.36,2013-03-17 19:20:00,
2013-03-17 14:25:00,38.7,20.1,29.97,NNE,27,6.9,6.9,47,0.00,,,0.00,WeatherDisplay:10.36,2013-03-17 19:25:00,
2013-03-17 14:30:00,38.5,20.5,29.97,NNE,27,5.8,5.8,48,0.00,,,0.00,WeatherDisplay:10.36,2013-03-17 19:30:00,
2013-03-17 14:35:00,38.5,21.0,30.17,NNE,30,10.9,10.9,49,0.00,,,0.00,WeatherDisplay:10.36,2013-03-17 19:35:00,
2013-03-17 14:40:00,38.5,21.0,30.17,NE,36,8.1,8.1,49,0.00,,,0.00,WeatherDisplay:10.36,2013-03-17 19:40:00,
2013-03-17 14:45:00,38.5,21.0,30.17,ENE,58,9.6,9.6,49,0.00,,,0.00,WeatherDisplay:10.36,2013-03-17 19:45:00,
2013-03-17 14:50:00,38.5,21.0,29.97,NNE,26,7.8,7.8,49,0.00,,,0.00,WeatherDisplay:10.36,2013-03-17 19:50:00,
2013-03-17 14:55:00,38.7,21.1,29.97,NNE,30,6.3,6.3,49,0.00,,,0.00,WeatherDisplay:10.36,2013-03-17 19:55:00,
2013-03-17 15:00:00,38.7,21.1,29.97,NE,38,5.8,5.8,49,0.00,,,0.00,WeatherDisplay:10.36,2013-03-17 20:00:00,
2013-03-17 15:05:00,38.7,21.1,29.97,NE,47,6.7,6.7,49,0.00,,,0.00,WeatherDisplay:10.36,2013-03-17 20:05:00,
2013-03-17 15:10:00,38.5,21.0,29.97,North,351,6.9,6.9,49,0.00,,,0.00,WeatherDisplay:10.36,2013-03-17 20:10:00,
2013-03-17 15:15:00,38.3,20.8,29.97,NE,35,7.4,7.4,49,0.00,,,0.00,WeatherDisplay:10.36,2013-03-17 20:15:00,
2013-03-17 15:20:00,38.3,21.3,29.94,NE,34,6.7,6.7,50,0.00,,,0.00,WeatherDisplay:10.36,2013-03-17 20:20:00,
2013-03-17 15:25:00,38.1,21.1,29.94,ENE,62,6.9,6.9,50,0.00,,,0.00,WeatherDisplay:10.36,2013-03-17 20:25:00,
2013-03-17 15:30:00,38.1,21.1,29.94,NNE,26,9.2,9.2,50,0.00,,,0.00,WeatherDisplay:10.36,2013-03-17 20:30:00,
2013-03-17 15:35:00,38.1,21.6,29.94,NE,41,10.4,10.4,51,0.00,,,0.00,WeatherDisplay:10.36,2013-03-17 20:35:00,
2013-03-17 15:40:00,38.5,21.4,29.94,ENE,60,6.3,6.3,50,0.00,,,0.00,WeatherDisplay:10.36,2013-03-17 20:40:00,
2013-03-17 15:45:00,38.5,21.4,29.94,NNE,27,10.1,10.1,50,0.00,,,0.00,WeatherDisplay:10.36,2013-03-17 20:45:00,
2013-03-17 15:50:00,38.5,21.4,29.94,NE,36,6.9,0.0,50,0.00,,,0.00,WeatherDisplay:10.36,2013-03-17 20:50:00,
2013-03-17 15:55:00,38.5,21.4,29.94,NE,38,8.1,8.1,50,0.00,,,0.00,WeatherDisplay:10.36,2013-03-17 20:55:00,
2013-03-17 16:00:00,38.5,21.4,29.94,NNE,26,5.8,5.8,50,0.00,,,0.00,WeatherDisplay:10.36,2013-03-17 21:00:00,
2013-03-17 16:05:00,38.5,21.9,29.94,North,351,9.2,9.2,51,0.00,,,0.00,WeatherDisplay:10.36,2013-03-17 21:05:00,
2013-03-17 16:11:00,38.5,21.9,29.94,ENE,57,5.8,5.8,51,0.00,,,0.00,WeatherDisplay:10.36,2013-03-17 21:11:00,
2013-03-17 16:17:00,38.5,21.9,29.94,NNE,29,6.7,6.7,51,0.00,,,0.00,WeatherDisplay:10.36,2013-03-17 21:17:00,
2013-03-17 16:22:00,38.7,22.1,29.94,NNE,32,6.3,6.3,51,0.00,,,0.00,WeatherDisplay:10.36,2013-03-17 21:22:00,
2013-03-17 16:27:00,38.7,22.1,29.94,NNE,31,3.1,4.9,51,0.00,,,0.00,WeatherDisplay:10.36,2013-03-17 21:27:00,
2013-03-17 16:32:00,38.7,22.1,29.91,NE,34,6.9,6.9,51,0.00,,,0.00,WeatherDisplay:10.36,2013-03-17 21:32:00,
2013-03-17 16:37:00,38.7,22.5,29.91,ENE,71,5.4,5.8,52,0.00,,,0.00,WeatherDisplay:10.36,2013-03-17 21:37:00,
2013-03-17 16:42:00,38.5,22.8,29.91,NNE,27,10.1,10.1,53,0.00,,,0.00,WeatherDisplay:10.36,2013-03-17 21:42:00,
2013-03-17 16:47:00,38.5,23.3,29.91,ENE,57,6.7,6.7,54,0.00,,,0.00,WeatherDisplay:10.36,2013-03-17 21:47:00,
2013-03-17 16:52:00,38.3,23.5,29.91,NE,37,8.7,8.7,55,0.00,,,0.00,WeatherDisplay:10.36,2013-03-17 21:52:00,
2013-03-17 16:57:00,38.1,23.8,29.91,NNE,26,5.8,5.8,56,0.00,,,0.00,WeatherDisplay:10.36,2013-03-17 21:57:00,
2013-03-17 17:02:00,37.9,24.5,29.91,NNE,26,6.7,6.7,58,0.00,,,0.00,WeatherDisplay:10.36,2013-03-17 22:02:00,
2013-03-17 17:07:00,37.6,25.3,29.91,NE,36,11.5,11.5,61,0.00,,,0.00,WeatherDisplay:10.36,2013-03-17 22:07:00,
2013-03-17 17:12:00,37.4,25.2,29.91,NNE,27,0.0,0.0,61,0.00,,,0.00,WeatherDisplay:10.36,2013-03-17 22:12:00,
2013-03-17 17:17:00,37.4,25.9,29.94,NNE,29,4.9,4.9,63,0.00,,,0.00,WeatherDisplay:10.36,2013-03-17 22:17:00,
2013-03-17 17:22:00,37.4,25.9,29.94,NE,39,4.0,0.0,63,0.00,,,0.00,WeatherDisplay:10.36,2013-03-17 22:22:00,
2013-03-17 17:28:00,37.4,26.3,29.94,ENE,58,8.1,8.1,64,0.00,,,0.00,WeatherDisplay:10.36,2013-03-17 22:28:00,
2013-03-17 17:34:00,37.4,26.3,29.91,NE,38,6.7,6.7,64,0.00,,,0.00,WeatherDisplay:10.36,2013-03-17 22:34:00,
2013-03-17 17:39:00,37.4,26.7,29.91,NE,34,7.4,7.4,65,0.00,,,0.00,WeatherDisplay:10.36,2013-03-17 22:39:00,
2013-03-17 17:44:00,37.4,26.7,29.91,NE,38,8.3,8.3,65,0.00,,,0.00,WeatherDisplay:10.36,2013-03-17 22:44:00,
2013-03-17 17:49:00,37.0,26.4,29.91,NE,36,6.9,6.9,65,0.00,,,0.00,WeatherDisplay:10.36,2013-03-17 22:49:00,
2013-03-17 17:54:00,36.7,26.7,29.91,NE,46,6.9,6.9,67,0.00,,,0.00,WeatherDisplay:10.36,2013-03-17 22:54:00,
2013-03-17 17:59:00,36.3,27.1,29.91,NE,35,6.9,6.9,69,0.00,,,0.00,WeatherDisplay:10.36,2013-03-17 22:59:00,
2013-03-17 18:04:00,36.3,27.5,29.91,NNE,30,5.4,5.4,70,0.00,,,0.00,WeatherDisplay:10.36,2013-03-17 23:04:00,
2013-03-17 18:09:00,36.1,27.6,29.91,NNE,31,6.9,6.9,71,0.00,,,0.00,WeatherDisplay:10.36,2013-03-17 23:09:00,
2013-03-17 18:14:00,35.8,27.6,29.91,WNW,292,6.9,6.9,72,0.00,,,0.00,WeatherDisplay:10.36,2013-03-17 23:14:00,
2013-03-17 18:19:00,35.6,27.8,29.91,NNE,28,8.1,8.1,73,0.00,,,0.00,WeatherDisplay:10.36,2013-03-17 23:19:00,
2013-03-17 18:24:00,35.4,28.0,29.91,NE,49,5.8,5.8,74,0.00,,,0.00,WeatherDisplay:10.36,2013-03-17 23:24:00,
2013-03-17 18:30:00,35.2,28.1,29.91,NNE,33,5.8,5.8,75,0.00,,,0.00,WeatherDisplay:10.36,2013-03-17 23:30:00,
2013-03-17 18:35:00,34.9,28.1,29.88,NNE,26,5.8,5.8,76,0.00,,,0.00,WeatherDisplay:10.36,2013-03-17 23:35:00,
2013-03-17 18:40:00,34.7,28.2,29.88,NE,37,3.5,3.5,77,0.00,,,0.00,WeatherDisplay:10.36,2013-03-17 23:40:00,
2013-03-17 18:45:00,34.5,28.1,29.88,NE,34,4.5,4.5,77,0.00,,,0.00,WeatherDisplay:10.36,2013-03-17 23:45:00,
2013-03-17 18:50:00,34.5,28.4,29.88,NNE,26,6.9,6.9,78,0.00,,,0.00,WeatherDisplay:10.36,2013-03-17 23:50:00,
2013-03-17 18:55:00,34.3,28.5,29.88,ENE,61,6.9,6.9,79,0.00,,,0.00,WeatherDisplay:10.36,2013-03-17 23:55:00,
2013-03-17 19:00:00,34.3,28.5,29.88,ENE,68,6.3,6.3,79,0.00,,,0.00,WeatherDisplay:10.36,2013-03-18 00:00:00,
2013-03-17 19:05:00,34.3,28.8,29.88,NNE,33,4.9,4.9,80,0.00,,,0.00,WeatherDisplay:10.36,2013-03-18 00:05:00,
2013-03-17 19:10:00,34.2,28.9,29.88,NNE,26,8.1,8.1,81,0.00,,,0.00,WeatherDisplay:10.36,2013-03-18 00:10:00,
2013-03-17 19:15:00,34.0,29.1,29.88,NNE,25,5.8,5.8,82,0.00,,,0.00,WeatherDisplay:10.36,2013-03-18 00:15:00,
2013-03-17 19:21:00,34.0,29.4,29.88,ENE,68,4.0,4.0,83,0.00,,,0.00,WeatherDisplay:10.36,2013-03-18 00:21:00,
2013-03-17 19:26:00,34.0,29.4,29.88,NNE,26,3.1,3.1,83,0.00,,,0.00,WeatherDisplay:10.36,2013-03-18 00:26:00,
2013-03-17 19:31:00,34.0,29.7,29.88,NNE,32,0.0,4.9,84,0.00,,,0.00,WeatherDisplay:10.36,2013-03-18 00:31:00,
2013-03-17 19:37:00,34.0,29.7,29.88,ESE,114,6.9,6.9,84,0.00,,,0.00,WeatherDisplay:10.36,2013-03-18 00:37:00,
2013-03-17 19:42:00,34.0,29.9,29.88,NNE,31,5.8,5.8,85,0.00,,,0.00,WeatherDisplay:10.36,2013-03-18 00:42:00,
2013-03-17 19:47:00,33.8,29.8,29.88,NNE,31,5.4,5.4,85,0.00,,,0.00,WeatherDisplay:10.36,2013-03-18 00:47:00,
2013-03-17 19:53:00,33.8,30.1,29.88,NNE,26,7.8,7.8,86,0.00,,,0.00,WeatherDisplay:10.36,2013-03-18 00:53:00,
2013-03-17 19:58:00,33.8,30.1,29.88,NNE,26,6.7,6.7,86,0.00,,,0.00,WeatherDisplay:10.36,2013-03-18 00:58:00,
2013-03-17 20:03:00,33.6,30.2,29.88,North,351,5.8,5.8,87,0.00,,,0.00,WeatherDisplay:10.36,2013-03-18 01:03:00,
2013-03-17 20:08:00,33.6,30.2,29.88,NNE,26,5.8,5.8,87,0.00,,,0.00,WeatherDisplay:10.36,2013-03-18 01:08:00,
2013-03-17 20:13:00,33.6,30.2,29.88,NNE,26,5.8,5.8,87,0.00,,,0.00,WeatherDisplay:10.36,2013-03-18 01:13:00,
2013-03-17 20:18:00,33.6,30.4,29.85,NNE,26,6.3,6.3,88,0.00,,,0.00,WeatherDisplay:10.36,2013-03-18 01:18:00,
2013-03-17 20:23:00,33.6,30.4,29.85,NNE,27,4.6,4.6,88,0.00,,,0.00,WeatherDisplay:10.36,2013-03-18 01:23:00,
2013-03-17 20:28:00,33.6,30.4,29.85,North,351,5.8,0.0,88,0.00,,,0.00,WeatherDisplay:10.36,2013-03-18 01:28:00,
2013-03-17 20:33:00,33.6,30.4,29.85,NE,34,4.9,4.9,88,0.00,,,0.00,WeatherDisplay:10.36,2013-03-18 01:33:00,
2013-03-17 20:38:00,33.8,30.6,29.85,NNE,26,2.7,0.0,88,0.00,,,0.00,WeatherDisplay:10.36,2013-03-18 01:38:00,
2013-03-17 20:43:00,33.8,30.9,29.85,NNE,28,4.9,4.9,89,0.00,,,0.00,WeatherDisplay:10.36,2013-03-18 01:43:00,
2013-03-17 20:48:00,33.8,30.9,29.88,NE,42,4.6,4.6,89,0.00,,,0.00,WeatherDisplay:10.36,2013-03-18 01:48:00,
2013-03-17 20:53:00,34.0,31.1,29.88,North,351,7.4,7.4,89,0.04,RA,RA,0.04,WeatherDisplay:10.36,2013-03-18 01:53:00,
2013-03-17 20:58:00,34.0,31.1,29.88,NNE,26,6.9,6.9,89,0.04,RA,RA,0.04,WeatherDisplay:10.36,2013-03-18 01:58:00,
2013-03-17 21:03:00,34.0,31.1,29.88,North,351,4.9,4.9,89,0.04,,,0.04,WeatherDisplay:10.36,2013-03-18 02:03:00,
2013-03-17 21:08:00,34.2,31.5,29.88,NNE,26,6.7,6.7,90,0.04,,,0.04,WeatherDisplay:10.36,2013-03-18 02:08:00,
2013-03-17 21:13:00,34.2,31.5,29.88,NNE,26,5.8,5.8,90,0.04,,,0.04,WeatherDisplay:10.36,2013-03-18 02:13:00,
2013-03-17 21:18:00,34.2,31.5,29.85,NNE,26,6.9,6.9,90,0.04,,,0.04,WeatherDisplay:10.36,2013-03-18 02:18:00,
2013-03-17 21:23:00,34.2,31.5,29.85,NE,38,6.3,6.3,90,0.04,,,0.04,WeatherDisplay:10.36,2013-03-18 02:23:00,
2013-03-17 21:28:00,34.2,31.5,29.85,NNE,26,4.6,0.0,90,0.04,,,0.04,WeatherDisplay:10.36,2013-03-18 02:28:00,
2013-03-17 21:33:00,34.0,31.4,29.85,NNE,29,4.0,0.0,90,0.04,,,0.04,WeatherDisplay:10.36,2013-03-18 02:33:00,
2013-03-17 21:38:00,34.0,31.4,29.85,NNE,26,6.9,6.9,90,0.04,,,0.04,WeatherDisplay:10.36,2013-03-18 02:38:00,
2013-03-17 21:43:00,34.0,31.4,29.85,NNE,26,4.6,4.6,90,0.04,,,0.04,WeatherDisplay:10.36,2013-03-18 02:43:00,
2013-03-17 21:48:00,34.0,31.4,29.85,NE,43,4.6,4.6,90,0.04,,,0.04,WeatherDisplay:10.36,2013-03-18 02:48:00,
2013-03-17 21:53:00,34.0,31.4,29.85,East,92,6.9,6.9,90,0.00,,,0.04,WeatherDisplay:10.36,2013-03-18 02:53:00,
2013-03-17 21:58:00,33.8,31.2,29.85,NE,51,6.3,6.3,90,0.00,,,0.04,WeatherDisplay:10.36,2013-03-18 02:58:00,
2013-03-17 22:03:00,33.8,31.5,29.85,ESE,113,4.9,4.9,91,0.00,,,0.04,WeatherDisplay:10.36,2013-03-18 03:03:00,
2013-03-17 22:08:00,33.8,31.5,29.85,NNE,26,6.3,6.3,91,0.00,,,0.04,WeatherDisplay:10.36,2013-03-18 03:08:00,
2013-03-17 22:13:00,33.8,31.5,29.85,NNE,26,4.6,0.0,91,0.00,,,0.04,WeatherDisplay:10.36,2013-03-18 03:13:00,
2013-03-17 22:18:00,34.0,31.6,29.85,NNE,26,4.0,0.0,91,0.00,,,0.04,WeatherDisplay:10.36,2013-03-18 03:18:00,
2013-03-17 22:23:00,34.0,31.6,29.85,NE,47,4.9,4.9,91,0.00,,,0.04,WeatherDisplay:10.36,2013-03-18 03:23:00,
2013-03-17 22:28:00,34.0,31.6,29.85,NNE,28,5.8,5.8,91,0.00,,,0.04,WeatherDisplay:10.36,2013-03-18 03:28:00,
2013-03-17 22:33:00,34.0,31.6,29.85,NE,45,3.6,3.6,91,0.00,,,0.04,WeatherDisplay:10.36,2013-03-18 03:33:00,
2013-03-17 22:38:00,34.0,31.6,29.85,NNE,28,5.8,5.8,91,0.00,,,0.04,WeatherDisplay:10.36,2013-03-18 03:38:00,
2013-03-17 22:43:00,34.0,31.6,29.85,East,80,6.9,6.9,91,0.00,,,0.04,WeatherDisplay:10.36,2013-03-18 03:43:00,
2013-03-17 22:48:00,34.0,31.6,29.85,NNE,26,5.8,5.8,91,0.00,,,0.04,WeatherDisplay:10.36,2013-03-18 03:48:00,
2013-03-17 22:53:00,34.0,31.6,29.85,NE,35,4.5,4.5,91,0.04,RA,RA,0.08,WeatherDisplay:10.36,2013-03-18 03:53:00,
2013-03-17 22:58:00,34.0,31.6,29.85,NNE,26,6.9,6.9,91,0.04,RA,RA,0.08,WeatherDisplay:10.36,2013-03-18 03:58:00,
2013-03-17 23:00:00,34.0,31.6,29.85,NE,38,9.6,9.6,91,0.04,RA,RA,0.08,WeatherDisplay:10.36,2013-03-18 04:00:00,
2013-03-17 23:01:00,34.0,31.9,29.85,SE,145,9.2,9.2,92,0.04,RA,RA,0.08,WeatherDisplay:10.36,2013-03-18 04:01:00,
2013-03-17 23:02:00,34.0,31.9,29.82,NE,56,6.7,6.7,92,0.04,RA,RA,0.08,WeatherDisplay:10.36,2013-03-18 04:02:00,
2013-03-17 23:07:00,34.2,32.1,29.82,ENE,61,5.8,5.8,92,0.04,,,0.08,WeatherDisplay:10.36,2013-03-18 04:07:00,
2013-03-17 23:12:00,34.2,32.1,29.82,NE,44,8.1,8.1,92,0.04,,,0.08,WeatherDisplay:10.36,2013-03-18 04:12:00,
2013-03-17 23:17:00,34.2,32.1,29.82,ENE,76,6.7,6.7,92,0.04,,,0.08,WeatherDisplay:10.36,2013-03-18 04:17:00,
2013-03-17 23:22:00,34.2,32.1,29.82,NNE,27,5.8,5.8,92,0.04,,,0.08,WeatherDisplay:10.36,2013-03-18 04:22:00,
2013-03-17 23:27:00,34.2,32.1,29.82,West,281,4.5,4.5,92,0.04,,,0.08,WeatherDisplay:10.36,2013-03-18 04:27:00,
2013-03-17 23:32:00,34.2,32.1,29.82,NE,34,7.8,7.8,92,0.04,,,0.08,WeatherDisplay:10.36,2013-03-18 04:32:00,
2013-03-17 23:37:00,34.3,32.3,29.82,NE,37,6.3,6.3,92,0.04,,,0.08,WeatherDisplay:10.36,2013-03-18 04:37:00,
2013-03-17 23:42:00,34.3,32.3,29.82,NNE,29,7.4,7.4,92,0.04,,,0.08,WeatherDisplay:10.36,2013-03-18 04:42:00,
2013-03-17 23:47:00,34.3,32.3,29.82,NE,45,4.5,4.5,92,0.04,,,0.08,WeatherDisplay:10.36,2013-03-18 04:47:00,
2013-03-17 23:53:00,34.3,32.5,29.82,NE,46,6.9,6.9,93,0.00,,,0.08,WeatherDisplay:10.36,2013-03-18 04:53:00,
2013-03-17 23:58:00,34.3,32.5,29.82,NNE,28,8.1,8.1,93,0.04,RA,RA,0.12,WeatherDisplay:10.36,2013-03-18 04:58:00,